Location: Macksville High School
(37.9611°N, 99.9654°W)
Time: 10:46:15
(UTC+00:00)

Daily predictions for brighter satellites

Satellite Brightness Start Highest point End
(mag) Time Altitude Azimuth Time Altitude Azimuth Time Altitude Azimuth
YAOGAN 6 4.3 12:00:11 10° NNE 12:03:36 35° E 12:07:00 10° SSE
Meteor PRIRODA 3.5 12:00:35 10° NNE 12:04:12 83° ESE 12:07:49 10° S
ERS-2 2.2 12:02:01 10° SSE 12:05:40 76° ENE 12:06:56 38° N
SJ 16-02 1.4 12:05:10 27° N 12:07:32 78° ENE 12:11:53 10° SSE
Cosmos 921 Rocket 3.5 12:04:39 10° S 12:08:54 59° ESE 12:13:05 10° NNE
GEOS 3 Rocket 3.6 12:03:36 10° SSE 12:08:56 79° SW 12:11:49 29° NW
Cosmos 1464 Rocket 4.2 12:03:10 10° S 12:09:14 71° E 12:15:21 10° NNE
CZ-4B R/B 3.2 12:09:07 10° S 12:10:24 21° SSW 12:10:24 21° SSW
SKYMED 3 4.5 12:10:14 10° S 12:14:31 62° W 12:16:40 28° NNW
Cosmos 1356 Rocket 3.2 12:10:35 10° SSW 12:14:33 60° W 12:18:36 10° N
PSLV R/B 4.2 12:10:41 10° SSE 12:14:43 68° ENE 12:18:49 10° N
Cosmos 1844 3.7 12:11:29 25° NW 12:14:49 64° WSW 12:20:31 10° S
Cosmos 1461 4.0 12:11:55 10° SSW 12:16:24 52° ESE 12:21:01 10° NE
Cosmos 1898 Rocket 4.5 12:12:39 10° N 12:17:39 46° ENE 12:22:35 10° SE
Cosmos 2084 3.4 12:17:01 39° WSW 12:18:16 57° NW 12:22:32 10° NNE
Cosmos 1726 1.9 12:16:49 10° S 12:20:29 76° W 12:24:12 10° N
Cosmos 1763 Rocket 3.4 12:16:17 10° SSW 12:21:24 88° WNW 12:26:38 10° NNE
ATLAS 5 CENTAUR R/B 2.9 12:21:56 19° N 12:23:18 33° ENE 12:28:00 10° SE
NOSS 0 Rocket 4.2 12:23:26 10° SSW 12:29:35 70° ESE 12:35:44 10° NNE
PSLV R/B 4.0 12:27:17 10° NNE 12:31:13 75° ESE 12:35:13 10° S
Chandra Rocket (1) 3.7 12:29:58 11° SW 12:32:31 17° S 12:34:30 10° SE
H-2A R/B 2.7 12:29:28 10° N 12:33:04 52° WNW 12:36:40 10° SSW
MOS 1 Rocket 3.5 12:28:39 10° S 12:33:48 63° W 12:38:43 10° NNW
CZ-3A R/B 4.4 12:26:00 13° WSW 12:34:18 29° SSW 12:40:17 10° SE
Cosmos 1953 2.4 12:34:35 10° S 12:38:35 80° E 12:42:34 10° N
SKYMED 2 4.3 12:34:44 10° SSW 12:38:37 32° W 12:40:59 19° NW
Cosmos 1455 Rocket 3.1 12:36:25 10° SSW 12:40:41 53° W 12:44:59 10° N
Cosmos 2034 Rocket 4.0 12:37:38 10° S 12:44:00 86° W 12:50:26 10° N
CZ-2C R/B 3.8 12:42:24 10° SSW 12:44:53 16° SSE 12:47:16 10° ESE
Okean O Rocket 3.2 12:41:04 10° NNE 12:45:10 38° E 12:49:12 10° SSE
CZ-4B R/B 4.4 12:40:17 10° NNE 12:45:45 47° E 12:51:07 10° S
Cosmos 1844 Rocket 3.6 12:44:35 19° WNW 12:47:03 26° WSW 12:51:33 10° SSW
Cosmos 2278 Rocket 3.0 12:41:49 10° NNW 12:47:22 52° ENE 12:52:52 10° SE
Cosmos 468 Rocket 4.3 12:43:55 10° SW 12:48:53 45° WNW 12:53:57 10° N
USA 276 2.4 12:47:28 21° NW 12:49:24 61° NE 12:52:29 10° ESE
Cosmos 2333 Rocket 2.9 12:44:48 10° WSW 12:49:42 30° WNW 12:54:39 10° N
NOAA 6 4.0 12:44:33 10° NNE 12:49:46 88° WNW 12:54:57 10° SSW
Cosmos 2237 Rocket 2.3 12:49:40 10° SSW 12:55:19 85° ESE 13:01:01 10° NNE
BREEZE-M DEB (TANK) 3.3 12:49:48 12° NW 12:57:32 56° NNE 13:00:32 10° ESE
Lacrosse 4 Rocket 4.2 12:54:29 10° SSE 12:57:48 23° ESE 13:01:10 10° NE
Cosmos 1937 Rocket 3.7 12:52:59 10° NNW 12:58:18 79° ENE 13:03:32 10° SSE
CZ-4B R/B 4.1 12:55:54 10° NNW 12:58:19 17° WNW 13:00:45 10° WSW
FALCON 9 DEB 3.7 12:56:31 10° SW 12:59:51 59° SE 13:03:12 10° NE
Envisat 3.2 12:55:55 10° N 13:00:49 49° WNW 13:05:41 10° SW
Nadezhda 4 Rocket 3.9 12:58:50 10° N 13:04:57 72° W 13:11:00 10° S
Cosmos 2219 Rocket 3.1 13:02:00 10° WSW 13:06:30 25° WNW 13:11:02 10° N
COSMOS 2428 3.5 13:03:53 10° WSW 13:08:45 28° WNW 13:13:38 10° N
OAO 2 Rocket 3.8 13:04:14 10° WSW 13:09:03 58° S 13:13:55 10° E
CZ-2C R/B 2.6 13:05:50 10° SSE 13:11:00 87° ENE 13:16:17 10° NNW
Cosmos 1602 Rocket 3.8 13:10:45 10° N 13:15:13 79° E 13:19:40 10° S
Cosmos 1908 3.3 13:12:56 10° SSW 13:16:37 50° W 13:20:20 10° N
Cosmos 1689 Rocket 4.1 13:19:54 10° WSW 13:21:08 12° W 13:22:22 10° WNW
H-2A R/B 2.9 13:19:47 10° N 13:24:05 48° WNW 13:28:24 10° SSW
Cosmos 1980 3.9 13:21:49 10° SW 13:27:16 48° WNW 13:32:46 10° NNE
Cosmos 1939 Rocket 3.1 13:23:51 10° NNE 13:27:48 75° ESE 13:31:40 10° S
NOAA 11 4.2 13:25:30 10° N 13:30:57 73° WNW 13:36:22 10° SSW
